Tiempo cada hora Abertillery

Hoy, 27 Octubre, Martes

Tiempo Temperatura Precipitaciones Viento Presión Humedad
00:00 +5°C° 0 mm 3 mps 730 mmHg 90%
01:00 +5°C° 0 mm 3 mps 730 mmHg 90%
02:00 +5°C° 0 mm 3 mps 729 mmHg 90%
03:00 +5°C° 0 mm 3 mps 729 mmHg 90%
04:00 +6°C° 0.2 mm 4 mps 728 mmHg 91%
05:00 +6°C° 0.2 mm 5 mps 728 mmHg 93%
06:00 +7°C° 0.2 mm 5 mps 727 mmHg 94%
07:00 +7°C° 0.9 mm 5 mps 726 mmHg 95%
08:00 +8°C° 0.9 mm 6 mps 726 mmHg 96%
09:00 +8°C° 0.9 mm 6 mps 725 mmHg 96%
10:00 +9°C° 0.5 mm 6 mps 725 mmHg 95%
11:00 +10°C° 0.5 mm 6 mps 724 mmHg 93%
12:00 +11°C° 0.5 mm 7 mps 724 mmHg 91%
13:00 +10°C° 0.1 mm 7 mps 724 mmHg 88%
14:00 +10°C° 0.1 mm 7 mps 724 mmHg 85%
15:00 +9°C° 0.1 mm 7 mps 725 mmHg 82%
16:00 +8°C° 0 mm 7 mps 725 mmHg 82%
17:00 +7°C° 0 mm 6 mps 726 mmHg 81%
18:00 +6°C° 0 mm 5 mps 727 mmHg 81%
19:00 +6°C° 0 mm 5 mps 727 mmHg 83%
20:00 +5°C° 0 mm 5 mps 727 mmHg 85%
21:00 +5°C° 0 mm 5 mps 728 mmHg 87%
22:00 +4°C° 0.1 mm 6 mps 728 mmHg 87%
23:00 +5°C° 0.1 mm 6 mps 728 mmHg 86%

Mañana, 28 Octubre, Miércoles

Tiempo Temperatura Precipitaciones Viento Presión Humedad
00:00 +5°C° 0.1 mm 7 mps 728 mmHg 86%
01:00 +5°C° 0.3 mm 7 mps 728 mmHg 85%
02:00 +5°C° 0.3 mm 7 mps 728 mmHg 85%
03:00 +5°C° 0.3 mm 7 mps 728 mmHg 84%
04:00 +5°C° 0.2 mm 7 mps 728 mmHg 85%
05:00 +5°C° 0.2 mm 7 mps 729 mmHg 86%
06:00 +5°C° 0.2 mm 6 mps 729 mmHg 87%
07:00 +5°C° 0.2 mm 7 mps 729 mmHg 85%
08:00 +6°C° 0.2 mm 7 mps 729 mmHg 83%
09:00 +6°C° 0.2 mm 7 mps 730 mmHg 81%
10:00 +6°C° 0.3 mm 8 mps 730 mmHg 81%
11:00 +6°C° 0.3 mm 8 mps 730 mmHg 81%
12:00 +6°C° 0.3 mm 8 mps 730 mmHg 81%
13:00 +6°C° 0.5 mm 8 mps 730 mmHg 82%
14:00 +6°C° 0.5 mm 8 mps 731 mmHg 83%
15:00 +6°C° 0.5 mm 8 mps 731 mmHg 84%
16:00 +5°C° 0.1 mm 7 mps 731 mmHg 83%
17:00 +5°C° 0.1 mm 7 mps 732 mmHg 83%
18:00 +4°C° 0.1 mm 7 mps 732 mmHg 83%
19:00 +4°C° 0 mm 6 mps 733 mmHg 83%
20:00 +4°C° 0 mm 6 mps 734 mmHg 84%
21:00 +4°C° 0 mm 6 mps 734 mmHg 84%
22:00 +4°C° 0 mm 6 mps 735 mmHg 83%
23:00 +4°C° 0 mm 6 mps 736 mmHg 83%

Pasado mañana, 29 Octubre, Jueves

Tiempo Temperatura Precipitaciones Viento Presión Humedad
00:00 +4°C° 0 mm 6 mps 736 mmHg 83%
01:00 +5°C° 0 mm 5 mps 737 mmHg 83%
02:00 +5°C° 0 mm 5 mps 737 mmHg 84%
03:00 +5°C° 0 mm 5 mps 738 mmHg 84%
04:00 +5°C° 0 mm 4 mps 738 mmHg 86%
05:00 +5°C° 0 mm 4 mps 739 mmHg 88%
06:00 +5°C° 0 mm 4 mps 739 mmHg 89%
07:00 +6°C° 0.1 mm 4 mps 739 mmHg 90%
08:00 +7°C° 0.1 mm 4 mps 740 mmHg 90%
09:00 +8°C° 0.1 mm 5 mps 740 mmHg 90%
10:00 +9°C° 0.2 mm 5 mps 740 mmHg 91%
11:00 +9°C° 0.2 mm 6 mps 740 mmHg 91%
12:00 +9°C° 0.2 mm 7 mps 741 mmHg 92%
13:00 +10°C° 0 mm 7 mps 740 mmHg 91%
14:00 +10°C° 0 mm 7 mps 740 mmHg 90%
15:00 +10°C° 0 mm 7 mps 740 mmHg 89%
16:00 +10°C° 0.1 mm 7 mps 740 mmHg 90%
17:00 +10°C° 0.1 mm 7 mps 740 mmHg 91%
18:00 +10°C° 0.1 mm 7 mps 740 mmHg 91%
19:00 +10°C° 0 mm 7 mps 740 mmHg 91%
20:00 +10°C° 0 mm 7 mps 740 mmHg 90%
21:00 +10°C° 0 mm 8 mps 740 mmHg 90%
22:00 +10°C° 0 mm 8 mps 740 mmHg 90%
23:00 +11°C° 0 mm 8 mps 740 mmHg 90%

30 Octubre, Viernes

Tiempo Temperatura Precipitaciones Viento Presión Humedad
00:00 +11°C° 0 mm 8 mps 740 mmHg 90%
01:00 +11°C° 0.2 mm 8 mps 740 mmHg 91%
02:00 +11°C° 0.2 mm 8 mps 740 mmHg 92%
03:00 +11°C° 0.2 mm 8 mps 740 mmHg 92%
04:00 +11°C° 0.7 mm 7 mps 740 mmHg 93%
05:00 +11°C° 0.7 mm 7 mps 740 mmHg 94%
06:00 +11°C° 0.7 mm 7 mps 740 mmHg 95%
07:00 +12°C° 0.6 mm 7 mps 740 mmHg 95%
08:00 +12°C° 0.6 mm 7 mps 740 mmHg 95%
09:00 +12°C° 0.6 mm 7 mps 741 mmHg 95%
10:00 +13°C° 0.3 mm 6 mps 741 mmHg 95%
11:00 +13°C° 0.3 mm 6 mps 742 mmHg 95%
12:00 +13°C° 0.3 mm 6 mps 742 mmHg 95%
13:00 +13°C° 0.1 mm 5 mps 742 mmHg 95%
14:00 +13°C° 0.1 mm 4 mps 742 mmHg 95%
15:00 +12°C° 0.1 mm 3 mps 742 mmHg 95%
16:00 +13°C° 0.2 mm 2 mps 743 mmHg 95%
17:00 +13°C° 0.2 mm 2 mps 743 mmHg 96%
18:00 +13°C° 0.2 mm 2 mps 743 mmHg 96%
19:00 +13°C° 0.1 mm 2 mps 743 mmHg 96%
20:00 +12°C° 0.1 mm 3 mps 743 mmHg 96%
21:00 +12°C° 0.1 mm 4 mps 743 mmHg 96%
22:00 +12°C° 0.1 mm 4 mps 742 mmHg 96%
23:00 +12°C° 0.1 mm 5 mps 742 mmHg 95%

31 Octubre, Sábado

Tiempo Temperatura Precipitaciones Viento Presión Humedad
00:00 +11°C° 0.1 mm 6 mps 741 mmHg 94%
01:00 +11°C° 0 mm 6 mps 741 mmHg 94%
02:00 +11°C° 0 mm 6 mps 740 mmHg 95%
03:00 +11°C° 0 mm 6 mps 740 mmHg 95%
04:00 +11°C° 0.1 mm 7 mps 739 mmHg 94%
05:00 +12°C° 0.1 mm 7 mps 739 mmHg 93%
06:00 +12°C° 0.1 mm 8 mps 738 mmHg 92%
07:00 +12°C° 0 mm 8 mps 738 mmHg 90%
08:00 +12°C° 0 mm 9 mps 737 mmHg 89%
09:00 +12°C° 0 mm 9 mps 736 mmHg 87%
10:00 +12°C° 0.5 mm 10 mps 736 mmHg 88%
11:00 +12°C° 0.5 mm 10 mps 735 mmHg 89%
12:00 +12°C° 0.5 mm 10 mps 734 mmHg 90%
13:00 +12°C° 0.5 mm 11 mps 734 mmHg 87%
14:00 +12°C° 0.5 mm 11 mps 733 mmHg 85%
15:00 +12°C° 0.5 mm 12 mps 733 mmHg 83%
16:00 +11°C° 0.2 mm 11 mps 734 mmHg 83%
17:00 +9°C° 0.2 mm 11 mps 734 mmHg 84%
18:00 +8°C° 0.2 mm 10 mps 735 mmHg 84%
19:00 +8°C° 0 mm 9 mps 736 mmHg 85%
20:00 +7°C° 0 mm 8 mps 737 mmHg 86%
21:00 +8°C° 0 mm 7 mps 737 mmHg 87%
22:00 +8°C° 0 mm 6 mps 737 mmHg 88%
23:00 +9°C° 0 mm 6 mps 737 mmHg 89%

1 Noviembre, Domingo

Tiempo Temperatura Precipitaciones Viento Presión Humedad
00:00 +9°C° 0 mm 6 mps 737 mmHg 90%
01:00 +9°C° 0.3 mm 7 mps 736 mmHg 91%
02:00 +10°C° 0.3 mm 8 mps 736 mmHg 91%
03:00 +10°C° 0.3 mm 9 mps 735 mmHg 92%
04:00 +10°C° 0.6 mm 9 mps 735 mmHg 92%
05:00 +9°C° 0.6 mm 10 mps 734 mmHg 92%
06:00 +9°C° 0.6 mm 10 mps 734 mmHg 92%
07:00 +11°C° 0.8 mm 10 mps 734 mmHg 92%
08:00 +11°C° 0.8 mm 10 mps 734 mmHg 92%
09:00 +11°C° 0.8 mm 10 mps 734 mmHg 92%
10:00 +12°C° 0.4 mm 10 mps 734 mmHg 92%
11:00 +12°C° 0.4 mm 10 mps 733 mmHg 91%
12:00 +13°C° 0.4 mm 11 mps 733 mmHg 91%
13:00 +13°C° 0.2 mm 10 mps 733 mmHg 91%
14:00 +13°C° 0.2 mm 10 mps 733 mmHg 92%
15:00 +13°C° 0.2 mm 10 mps 732 mmHg 92%
16:00 +13°C° 0.5 mm 10 mps 732 mmHg 93%
17:00 +13°C° 0.5 mm 10 mps 732 mmHg 93%
18:00 +13°C° 0.5 mm 9 mps 733 mmHg 94%
19:00 +13°C° 0.6 mm 9 mps 733 mmHg 95%
20:00 +13°C° 0.6 mm 9 mps 733 mmHg 95%
21:00 +13°C° 0.6 mm 9 mps 734 mmHg 95%
22:00 +13°C° 0.3 mm 8 mps 734 mmHg 95%
23:00 +12°C° 0.3 mm 7 mps 734 mmHg 95%
Mostrar más

Necesitamos Su Consentimiento

Meteoprog y nuestros Proveedores de Servicios pueden almacenar y acceder a sus datos personales como cookies, identificadores de dispositivo u otras tecnologías similares de su dispositivo y procesar dichos datos para personalizar contenido y anuncios, además de ofrecer funciones de redes sociales y analizar el tráfico.

  • Almacenar y/o acceder a información en su dispositivo

    Se puede almacenar o acceder a cookies, identificadores de dispositivo u otra información de su dispositivo para los fines anteriormente indicados.

  • Anuncios y contenido personalizados, medición de anuncios y contenido, percepciones del público, y desarrollo de productos

    Los anuncios y el contenido pueden personalizarse en base a su perfil. Se pueden añadir más datos para personalizar mejor los anuncios y contenidos. Se puede medir el rendimiento de los anuncios y contenidos. Se puede obtener la percepción sobre el público que ha visto los anuncios y contenidos. Dichos datos pueden usarse para desarrollar o mejorar la experiencia del usuario, sistemas y software.

Al hacer clic en ‘Estoy De Acuerdo’ usted permitirá el uso de las cookies, identificadores de dispositivo, balizas web u otras tecnologías similares indicadas. Su configuración puede cambiarse desde el navegador de su dispositivo.

Para ciertos fines, los intereses legítimos pueden ser considerados por encima del consentimiento. Puede leer más sobre ello en nuestra Política de Privacidad y Cookies.